Regional Weather Roundup
Issued by NWS

Home | Current Version | Previous Version | Graphics & Text | Print | Product List | Glossary On
Versions: 1 2 3 4 5 6 7 8 9 10 11 12 13 14 15 16 17 18 19 20 21 22 23 24 25 26 27 28 29 30 31 32 33 34 35 36 37 38 39 40 41 42 43 44 45 46 47 48 49 50
000
ASUS43 KBIS 221510
RWRND

NORTH DAKOTA REGIONAL WEATHER ROUNDUP
NATIONAL WEATHER SERVICE BISMARCK ND
900 AM CST MON DEC 22 2014

NOTE: "FAIR" INDICATES FEW OR NO CLOUDS BELOW 12,000 FEET WITH NO
SIGNIFICANT WEATHER AND/OR OBSTRUCTIONS TO VISIBILITY.


NDZ001>003-009>011-017-221600-
NORTHWEST NORTH DAKOTA

CITY           SKY/WX    TMP DP  RH WIND       PRES   REMARKS
WILLISTON      CLOUDY    27  23  85 NW17G26   29.55R WCI  14
MINOT          CLOUDY    28  26  92 N6        29.50S FOG
MINOT AFB      FRZ DRZL  28  28 100 E8        29.51R FOG     WCI  20
$$

NDZ018>021-031>035-040>046-221600-
SOUTHWEST NORTH DAKOTA

CITY           SKY/WX    TMP DP  RH WIND       PRES   REMARKS
BISMARCK       CLOUDY    28  28 100 NE3       29.48R FOG
DICKINSON      CLOUDY    28  24  85 NW22      29.47R FOG     WCI  14
GARRISON         N/A     28  27  96 NE3       29.48R
HETTINGER ARPT LGT SNOW  32  29  88 NW23G30   29.49R FOG     WCI  19
$$

NDZ004>008-012>016-024-026-027-054-221600-
NORTHEAST NORTH DAKOTA

CITY           SKY/WX    TMP DP  RH WIND       PRES   REMARKS
GRAND FORKS    CLOUDY    35  34  96 E9        29.53S FOG
GRND FRKS AFB  CLOUDY    35  35 100 E6        29.53S FOG
DEVILS LAKE    CLOUDY    30  27  86 NE7       29.49S
$$

NDZ022-023-025-028>030-036>039-047>053-221600-
SOUTHEAST NORTH DAKOTA

CITY           SKY/WX    TMP DP  RH WIND       PRES   REMARKS
FARGO          CLOUDY    38  37  97 SE7       29.50S FOG
JAMESTOWN      FOG       32  32 100 NE6       29.45S VSB 1/4
$$



USA.gov is the U.S. government's official web portal to all federal, state and local government web resources and services.